| time (UTC) | temp F | wind direction | speed MPH | gust MPH | rain 1hr in | rain 24hr in | rain mn in | humidity % | barometer mb |
| 20260504044542 | 46 | 163 | 0.0 | 0.0 | 0.00 | 0.01 | 0.00 | 90 | 1018.6 |
| 20260504043023 | 46 | 163 | 0.0 | 0.0 | 0.00 | 0.01 | 0.00 | 90 | 1018.7 |
| 20260504041521 | 46 | 163 | 0.0 | 0.0 | 0.00 | 0.01 | 0.00 | 89 | 1018.7 |
| 20260504034602 | 46 | 163 | 0.0 | 0.0 | 0.00 | 0.01 | 0.01 | 88 | 1018.6 |
| 20260504033113 | 47 | 163 | 0.0 | 0.0 | 0.00 | 0.01 | 0.01 | 88 | 1018.6 |
| 20260504031505 | 47 | 163 | 0.0 | 0.0 | 0.00 | 0.01 | 0.01 | 87 | 1018.7 |
| 20260504030008 | 47 | 163 | 0.0 | 0.0 | 0.00 | 0.01 | 0.01 | 87 | 1018.6 |
| 20260504024507 | 47 | 163 | 0.0 | 0.0 | 0.00 | 0.01 | 0.01 | 86 | 1018.6 |
| 20260504023004 | 47 | 163 | 0.0 | 0.0 | 0.00 | 0.01 | 0.01 | 84 | 1018.5 |
| 20260504021541 | 48 | 163 | 0.0 | 0.0 | 0.00 | 0.01 | 0.01 | 83 | 1018.4 |
| 20260504020041 | 48 | 163 | 0.0 | 0.0 | 0.00 | 0.01 | 0.01 | 82 | 1018.4 |
| 20260504014601 | 49 | 163 | 0.0 | 0.0 | 0.00 | 0.01 | 0.01 | 80 | 1018.1 |
| 20260504014505 | 49 | 163 | 0.0 | 0.0 | 0.00 | 0.01 | 0.01 | 80 | 1018.1 |
| 20260504013121 | 49 | 163 | 0.0 | 0.0 | 0.00 | 0.01 | 0.01 | 78 | 1018.0 |
| 20260504011531 | 50 | 163 | 0.0 | 0.0 | 0.00 | 0.01 | 0.01 | 76 | 1017.7 |
| 20260504010031 | 51 | 163 | 0.0 | 0.0 | 0.00 | 0.01 | 0.01 | 74 | 1017.5 |
| 20260504004509 | 51 | 163 | 0.0 | 0.0 | 0.00 | 0.01 | 0.01 | 73 | 1017.3 |
| 20260504003006 | 53 | 163 | 0.0 | 1.0 | 0.00 | 0.01 | 0.01 | 73 | 1017.1 |
| 20260504001504 | 55 | 270 | 0.0 | 0.0 | 0.00 | 0.01 | 0.01 | 68 | 1016.8 |
| 20260504000008 | 57 | 270 | 0.0 | 0.0 | 0.00 | 0.03 | 0.01 | 64 | 1016.7 |
| 20260503233045 | 61 | 270 | 0.0 | 0.0 | 0.00 | 0.03 | 0.01 | 50 | 1016.5 |
| 20260503231540 | 62 | 270 | 0.0 | 1.0 | 0.00 | 0.03 | 0.01 | 45 | 1016.6 |
| 20260503224557 | 64 | 60 | 0.0 | 1.0 | 0.00 | 0.13 | 0.01 | 43 | 1016.5 |
| 20260503224503 | 64 | 60 | 0.0 | 1.0 | 0.00 | 0.13 | 0.01 | 41 | 1016.5 |
| 20260503223024 | 65 | 116 | 0.0 | 3.0 | 0.00 | 0.13 | 0.01 | 40 | 1016.3 |
| 20260503221524 | 67 | 343 | 0.0 | 4.0 | 0.00 | 0.13 | 0.01 | 37 | 1016.3 |
| 20260503220040 | 67 | 138 | 0.0 | 4.0 | 0.00 | 0.19 | 0.01 | 37 | 1016.2 |
| 20260503214543 | 67 | 19 | 1.0 | 4.0 | 0.00 | 0.19 | 0.01 | 38 | 1016.2 |
| 20260503213005 | 67 | 9 | 2.0 | 8.0 | 0.00 | 0.19 | 0.01 | 38 | 1016.0 |
| 20260503211604 | 67 | 271 | 0.0 | 6.0 | 0.00 | 0.19 | 0.01 | 39 | 1016.0 |
| 20260503210014 | 67 | 298 | 2.0 | 6.0 | 0.00 | 0.24 | 0.01 | 38 | 1016.2 |
| 20260503204521 | 67 | 268 | 1.0 | 5.0 | 0.00 | 0.24 | 0.01 | 40 | 1016.4 |
| 20260503203012 | 67 | 99 | 1.0 | 10.0 | 0.00 | 0.24 | 0.01 | 38 | 1016.4 |
| 20260503201514 | 67 | 292 | 2.0 | 9.0 | 0.00 | 0.24 | 0.01 | 39 | 1016.4 |
| 20260503200010 | 67 | 354 | 1.0 | 8.0 | 0.00 | 0.32 | 0.01 | 39 | 1016.4 |
| 20260503194510 | 67 | 328 | 2.0 | 7.0 | 0.00 | 0.32 | 0.01 | 38 | 1016.5 |
| 20260503193132 | 67 | 281 | 2.0 | 10.0 | 0.00 | 0.32 | 0.01 | 38 | 1016.7 |
| 20260503191529 | 67 | 304 | 1.0 | 7.0 | 0.00 | 0.32 | 0.01 | 38 | 1017.0 |
| 20260503190014 | 66 | 116 | 2.0 | 7.0 | 0.00 | 0.39 | 0.01 | 40 | 1017.2 |
| 20260503184513 | 66 | 299 | 2.0 | 10.0 | 0.00 | 0.39 | 0.01 | 37 | 1017.4 |
| 20260503183010 | 66 | 13 | 1.0 | 10.0 | 0.00 | 0.39 | 0.01 | 43 | 1017.5 |
| 20260503181543 | 66 | 351 | 3.0 | 10.0 | 0.00 | 0.39 | 0.01 | 37 | 1017.6 |
| 20260503180052 | 65 | 291 | 4.0 | 11.0 | 0.00 | 0.43 | 0.01 | 39 | 1017.8 |
| 20260503174534 | 66 | 26 | 4.0 | 10.0 | 0.00 | 0.43 | 0.01 | 42 | 1017.8 |
| 20260503173031 | 65 | 326 | 2.0 | 6.0 | 0.00 | 0.43 | 0.01 | 42 | 1017.8 |
| 20260503171542 | 66 | 311 | 2.0 | 12.0 | 0.00 | 0.43 | 0.01 | 42 | 1018.0 |
| 20260503110104 | 45 | 334 | 0.0 | 1.0 | 0.00 | 0.60 | 0.01 | 95 | 1016.6 |
| 20260503081510 | 45 | 313 | 0.0 | 0.0 | 0.00 | 0.60 | 0.00 | 94 | 1014.6 |